sat.trackr.live / text

‹ back to catalog

ONEWEB-0225

NORAD 48799 · 2021-045AJ

PAYLOAD ACTIVE UNKNOWN

§ Identity

Operator
Country
UK
Launch date
2021-05-28
Launch site
VOSTO
Launch vehicle
Mass (kg)
RCS (m²)

Purposes: comms

External: N2YO · Heavens-Above · Gunter

§ Orbital elements

Epoch: 2026-09-20T04:57:03.651264Z

Period
109.46 min
Inclination
87.8991°
Eccentricity
0.0002101
Mean motion
13.15546794 rev/d
Perigee alt
1,200.2 km
Apogee alt
1,203.4 km
Semi-major
7,579.9 km
B*
-2.2705e-4
RAAN
240.2551°
Arg perigee
67.8266°
Mean anomaly
292.3087°
Rev number
25,691

§ Raw data

ONEWEB-02251 48799U 21045AJ  26263.20629226 -.00000073  00000+0 -22705-3 0  99972 48799  87.8991 240.2551 0002101  67.8266 292.3087 13.15546794256918

JSON: /api/v1/satellites/48799 · /tle

For live sub-satellite position, see the globe view (requires WebGL).

§ Visibility from observer

Set your observer location to see the next 7 days of passes ≥ 10°. The values pass through the URL so the page stays shareable.

No JS? Fill the form by hand. The geolocation button needs JavaScript.